Regional Weather Roundup
Issued by NWS

Home | Current Version | Previous Version | Graphics & Text | Print | Product List | Glossary On
Versions: 1 2 3 4 5 6 7 8 9 10 11 12 13 14 15 16 17 18 19 20 21 22 23 24 25 26 27 28 29 30 31 32 33 34 35 36 37 38 39 40 41 42 43 44 45 46 47 48 49 50
000
ASUS43 KBIS 312120
RWRND

NORTH DAKOTA REGIONAL WEATHER ROUNDUP
NATIONAL WEATHER SERVICE BISMARCK ND
400 PM CDT THU JUL 31 2014

NOTE: "FAIR" INDICATES FEW OR NO CLOUDS BELOW 12,000 FEET WITH NO
SIGNIFICANT WEATHER AND/OR OBSTRUCTIONS TO VISIBILITY.


NDZ001>003-009>011-017-312200-
NORTHWEST NORTH DAKOTA

CITY           SKY/WX    TMP DP  RH WIND       PRES   REMARKS
WILLISTON      SUNNY     88  52  29 VRB6      30.04F
MINOT          SUNNY     81  56  42 NE6       30.07S
MINOT AFB      SUNNY     81  57  44 VRB2      30.06F
$$

NDZ018>021-031>035-040>046-312200-
SOUTHWEST NORTH DAKOTA

CITY           SKY/WX    TMP DP  RH WIND       PRES   REMARKS
BISMARCK       SUNNY     86  48  26 SW7       30.07F
DICKINSON      SUNNY     86  48  26 VRB3      30.07F
GARRISON         N/A     80  57  45 CALM      30.08S
HETTINGER ARPT SUNNY     87  49  26 NW7       30.11R
$$

NDZ004>008-012>016-024-026-027-054-312200-
NORTHEAST NORTH DAKOTA

CITY           SKY/WX    TMP DP  RH WIND       PRES   REMARKS
GRAND FORKS    MOSUNNY   83  61  47 W5        30.00F
GRND FRKS AFB  MOSUNNY   82  62  50 VRB6      30.02S
DEVILS LAKE    SUNNY     81  54  39 N7        30.04S
$$

NDZ022-023-025-028>030-036>039-047>053-312200-
SOUTHEAST NORTH DAKOTA

CITY           SKY/WX    TMP DP  RH WIND       PRES   REMARKS
FARGO          MOSUNNY   84  58  40 NW9       30.01S
JAMESTOWN      MOSUNNY   82  54  37 NW5       30.06S
$$



USA.gov is the U.S. government's official web portal to all federal, state and local government web resources and services.